Location: Gollag?dem
(17.0207°N, 80.7261°E)
Time: 07:40:45
(UTC+00:00)

Cosmos 1953 - Pass Details

Date: 03 August 2024
Orbit: 505 x 524 km, 82.5° (Epoch: 10 September)

Event Time Altitude Azimuth Distance (km) Brightness Sun altitude
Exits shadow 23:40:26 - 216° (SW) 1,861 4.5 -9.3°
Reaches altitude 10° 23:40:52 10° 219° (SW) 1,709 4.3 -9.2°
Maximum altitude 23:44:02 26° 277° (W) 1,026 3.2 -8.5°
Drops below altitude 10° 23:47:12 10° 335° (NNW) 1,716 4.8 -7.7°
Sets 23:49:35 0° 348° (NNW) 2,605 5.9 -7.2°
